Location: ???????????
(38.4097°N, 22.9855°E)
Time: 15:40:15
(UTC+00:00)

Daily predictions for brighter satellites

Satellite Brightness Start Highest point End
(mag) Time Altitude Azimuth Time Altitude Azimuth Time Altitude Azimuth
SL-16 R/B 3.8 18:13:48 10° NW 18:18:54 35° WSW 18:23:56 10° SSW
Cosmos 1937 Rocket 3.9 18:15:06 10° SSW 18:20:16 72° WNW 18:25:26 10° NNE
CZ-4 R/B 2.2 18:16:40 10° S 18:20:37 52° W 18:24:32 10° NNW
Okean O Rocket 1.8 18:17:43 10° SSE 18:21:54 53° ENE 18:26:06 10° N
Okean 2 Rocket 3.6 18:17:43 10° N 18:22:01 44° E 18:26:16 10° SSE
SL-24 R/B 3.8 18:18:32 10° SSE 18:22:07 58° ENE 18:25:54 10° N
Cosmos 2151 Rocket 3.9 18:19:01 10° N 18:23:20 50° E 18:27:39 10° SSE
Cosmos 1680 Rocket 3.7 18:19:49 10° N 18:24:59 57° ENE 18:30:09 10° SSE
CSL-04 Rocket 3.7 18:20:05 10° SSE 18:25:32 77° ENE 18:31:03 10° N
Cosmos 1603 4.1 18:21:09 10° NNW 18:26:41 49° ENE 18:32:08 10° SE
PSLV R/B 3.8 18:25:55 10° SSE 18:29:18 49° ENE 18:32:46 10° N
Cosmos 1892 2.6 18:28:43 10° S 18:32:15 83° W 18:35:49 10° N
Feng Yun 1-1 Rocket 4.3 18:27:28 10° SSE 18:32:58 84° WSW 18:38:25 10° NNW
Cosmos 1607 4.0 18:26:45 10° NNW 18:33:09 89° ENE 18:39:21 10° SSE
USA 215 3.8 18:29:11 10° ESE 18:35:28 51° NE 18:41:46 10° NW
SPOT 5 3.8 18:31:15 10° SE 18:35:34 33° ENE 18:40:06 10° N
NOSS 2-3 (D) 3.9 18:34:00 10° S 18:37:18 31° ESE 18:40:38 10° NE
Cosmos 2112 Rocket 4.1 18:36:28 10° NNW 18:41:41 68° ENE 18:46:55 10° SSE
ISS -0.7 18:39:48 10° WNW 18:41:53 16° NNW 18:43:59 10° NNE
Timation 2 Rocket 4.4 18:38:13 10° S 18:44:07 40° ESE 18:49:50 10° NE
Cosmos 1328 3.7 18:41:55 10° S 18:45:42 65° E 18:49:28 10° NNE
Cosmos 724 4.3 18:41:26 10° NNW 18:47:18 90° ENE 18:52:57 11° SSE
USA 186 3.8 18:45:05 10° SSW 18:47:43 26° W 18:50:21 10° NW
Cosmos 1825 2.8 18:44:36 10° SSW 18:47:54 51° W 18:51:13 10° N
ARGOS Delta rocket 3.8 18:43:32 10° SSE 18:48:06 74° ENE 18:52:57 10° N
OAO 2 Rocket 3.8 18:43:29 10° W 18:48:28 48° SSW 18:52:42 14° ESE
Okean-O 2.8 18:45:18 10° SSE 18:49:35 58° ENE 18:53:54 10° N
NOSS 2-2 (E) 2.7 18:57:06 10° SSW 19:00:41 77° ESE 19:03:48 10° NE
NOSS 2-2 (C) 3.4 18:57:43 10° SW 19:01:07 58° NW 19:04:11 10° NNE
CZ-4C R/B 3.2 18:57:41 10° NNE 19:01:15 52° E 19:04:27 11° S
Cosmos 2084 3.2 18:59:39 10° SSW 19:03:53 83° ESE 19:07:56 10° NE
NOSS 2-3 (E) 3.0 19:02:40 10° SSW 19:06:19 81° ESE 19:10:06 10° NE
Nadezhda 3 Rocket 4.3 19:05:28 10° N 19:11:23 48° E 19:15:33 19° SE
Cosmos 1844 4.4 19:06:25 10° SW 19:12:07 59° WNW 19:17:50 10° NNE
Cosmos 2181 Rocket 4.1 19:05:58 10° N 19:12:07 76° W 19:18:19 10° S
Hubble Space Telescope 2.2 19:13:34 10° SW 19:16:27 19° S 19:16:52 19° S
Terra 2.4 19:13:57 22° SE 19:16:34 42° ENE 19:21:01 10° N
Meteor 1-21 Rocket 4.1 19:13:07 10° S 19:18:41 86° E 19:24:14 10° N
H-II Stage 2 3.6 19:18:44 10° SW 19:21:33 25° SSE 19:23:25 22° SE
NOSS 2-3 (C) 3.6 19:20:29 10° SW 19:24:03 62° NW 19:27:49 10° NNE
Cosmos 1437 Rocket 4.3 19:32:35 18° ENE 19:32:35 18° ENE 19:34:33 10° NE
GP-B 4.0 19:28:26 10° N 19:32:40 47° W 19:36:53 10° SSW
Cosmos 1833 Rocket 4.2 19:29:34 10° N 19:34:04 24° NE 19:36:42 17° E
ATLAS CENTAUR R/B 2.2 19:30:46 10° NNW 19:34:33 38° NE 19:35:58 29° E
Okean 1 Rocket 4.2 19:31:12 10° NNW 19:35:25 42° W 19:39:21 11° SSW
Cosmos 44 3.6 19:32:59 10° S 19:38:08 53° ESE 19:43:09 10° NE
Cosmos 1975 Rocket 3.0 19:35:44 21° S 19:38:38 84° E 19:43:08 10° N
Cosmos 1025 Rocket 4.2 19:35:24 10° SSW 19:39:25 41° W 19:43:27 10° N
Lacrosse 5 4.4 19:36:10 10° W 19:40:12 23° NNW 19:44:16 10° NNE
Cosmos 1455 Rocket 2.9 19:36:21 10° N 19:40:45 87° E 19:42:42 33° S
ERS-1 Rocket 2.9 19:38:08 26° SSE 19:40:58 90° WSW 19:46:00 10° NNW
Spot 2 Rocket 3.5 19:39:22 31° SSE 19:41:48 66° ENE 19:46:52 10° N
Cosmos 2278 Rocket 3.3 19:49:26 25° E 19:49:26 25° E 19:53:53 10° NE
Cosmos 2341 Rocket 4.2 19:48:47 30° SSE 19:51:37 52° E 19:57:42 10° NNE
Cosmos 2298 Rocket 4.1 19:53:06 35° SSE 19:55:03 54° ESE 20:00:14 10° NNE
Cosmos 1339 Rocket 4.4 19:49:50 10° N 19:56:03 69° E 19:58:45 35° SSE
Meteor 1-11 4.3 19:53:04 18° SSW 19:57:26 82° W 20:03:09 10° N
Landsat 5 3.9 19:53:35 10° NNE 19:57:48 44° E 19:58:00 44° ESE
Okean O Rocket 4.3 19:56:47 10° WSW 19:58:27 12° W 20:00:08 10° WNW
Cosmos 1606 2.3 20:00:37 10° N 20:04:09 77° ENE 20:04:09 77° ENE
Ariane Rocket 3.0 20:07:17 39° S 20:09:10 75° WSW 20:14:15 10° NNW
Cosmos 1536 Rocket 4.0 20:10:07 43° E 20:10:07 43° E 20:14:01 10° NNE
MOS 1 Rocket 4.0 20:11:40 30° SSW 20:13:35 47° W 20:17:58 10° NNW
ATLAS 3B R/B 3.7 20:14:16 27° ESE 20:14:16 27° ESE 20:19:52 10° NE
Cosmos 1869 3.1 20:11:16 10° N 20:15:06 81° W 20:15:15 78° SW
USA 215 3.8 20:15:52 32° S 20:18:26 46° SW 20:24:43 10° WNW
Cosmos 921 Rocket 4.3 20:16:54 10° NW 20:20:35 31° W 20:21:45 26° SW
ARIANE 5 R/B 4.3 20:21:27 21° ENE 20:21:30 21° ENE 20:24:51 10° NNE
Cosmos 1943 Rocket 3.2 20:26:53 30° E 20:26:53 30° E 20:30:57 10° NE
Cosmos 1821 Rocket 4.4 20:25:11 41° ESE 20:26:12 44° E 20:32:09 10° NNE
Cosmos 2228 2.9 20:27:31 10° N 20:31:33 80° NNE 20:31:33 80° NNE
Cosmos 2150 Rocket 4.4 20:34:01 29° SW 20:36:44 62° WNW 20:42:09 10° NNE
NOSS 3-1 (C) 2.8 20:37:12 50° SW 20:38:29 83° WNW 20:43:59 10° NNE
SPOT 3 Rocket 4.5 20:38:30 32° SW 20:40:05 41° W 20:45:00 10° NNW
USA 276 4.4 20:41:20 10° NW 20:42:48 24° NNW 20:42:48 24° NNW
Cosmos 2366 rocket 4.1 20:45:59 39° SSW 20:48:17 67° W 20:54:24 10° N
SeaSat 1 4.4 20:47:14 17° ENE 20:48:28 19° NE 20:51:47 10° N
Terra 3.9 20:52:38 15° WSW 20:54:19 18° W 20:57:32 10° NW
BREEZE-M DEB (TANK) 4.5 20:54:27 10° NW 20:58:36 87° NE 21:03:15 36° SE
Meteor 1-27 4.4 21:05:23 10° NNW 21:10:53 58° W 21:11:28 55° WSW
Meteor 2-13 Rocket 4.3 21:05:05 10° N 21:11:17 89° W 21:11:57 73° S
Cosmos 2239 Rocket 4.3 21:10:55 68° ESE 21:11:18 70° E 21:17:30 10° NNE
ATLAS CENTAUR R/B 3.6 21:09:02 10° WNW 21:10:52 17° W 21:10:52 17° W
SL-08 R/B 4.3 21:12:45 70° ESE 21:13:04 72° E 21:19:09 10° NNE
NOSS 3-1 (A) 3.1 21:16:36 65° NE 21:16:36 65° NE 21:21:22 10° NE
Cosmos 1833 Rocket 3.2 21:12:48 10° NW 21:18:13 48° WSW 21:18:22 48° WSW
Cosmos 2123 Rocket 4.5 21:16:50 10° N 21:22:50 46° ENE 21:23:11 45° E
Cosmos 1000 Rocket 4.3 21:21:39 10° N 21:27:48 76° E 21:28:02 75° ESE
Cosmos 2082 Rocket 2.4 21:26:09 10° NNW 21:31:39 58° ENE 21:31:39 58° ENE
Cosmos 2278 Rocket 3.2 21:31:13 32° WSW 21:33:08 42° WNW 21:38:29 10° N
Cosmos 1726 Rocket 4.5 21:29:02 10° N 21:32:05 45° NNW 21:32:05 45° NNW
Cosmos 2369 Rocket 4.0 21:37:51 18° ENE 21:37:51 18° ENE 21:40:09 10° NE
Cosmos 489 Rocket 4.5 21:39:57 66° E 21:39:57 66° E 21:45:46 10° NNE
H-2A R/B 4.0 21:44:33 32° N 21:44:33 32° N 21:46:42 10° N
USA 229 DEB 4.3 21:44:54 37° E 21:44:54 37° E 21:49:29 10° NE
USA 229 4.3 21:45:03 36° E 21:45:03 36° E 21:49:36 10° NE
ULPM Upper Stage 4.4 21:41:21 10° NNW 21:44:39 30° NNE 21:44:39 30° NNE
Cosmos 1934 Rocket 3.9 21:54:43 85° WSW 21:54:49 86° W 22:01:06 10° N
CZ-4C R/B 4.0 21:49:11 10° NNW 21:56:00 40° NE 22:00:34 23° ESE
ARIANE 5 R/B 4.3 21:58:54 27° WNW 21:58:54 27° WNW 22:01:39 10° NNW
ISS -0.6 21:55:53 10° NNW 21:57:18 14° N 21:57:18 14° N
Cosmos 2058 Rocket 4.3 21:54:38 10° N 21:57:25 39° NNW 21:57:25 39° NNW
COSMOS 2406 3.3 21:55:37 10° NNW 22:00:48 73° N 22:00:48 73° N
ATLAS 3B R/B 3.2 22:01:26 39° WSW 22:04:04 60° NW 22:11:34 10° NNE
Cosmos 1943 Rocket 3.4 22:08:20 30° W 22:09:40 34° WNW 22:14:45 10° N
USA 281 3.5 22:09:48 52° E 22:10:48 57° ENE 22:17:12 10° NNW
Meteor 2-19 Rocket 4.4 22:09:48 10° N 22:15:45 83° NNW 22:15:45 83° NNW
USA 81 4.5 22:12:05 10° N 22:16:27 57° NNE 22:16:27 57° NNE
ALOS 2 4.0 22:19:19 35° NW 22:19:19 35° NW 22:22:00 10° NNW
Meteor 2-3 Rocket 3.9 22:21:26 70° NNE 22:21:26 70° NNE 22:26:29 10° N
Cosmos 1535 Rocket 4.5 22:24:51 70° WNW 22:24:51 70° WNW 22:30:51 10° N
SeaSat 1 3.4 22:26:56 42° NW 22:26:56 42° NW 22:30:20 10° NNW
H-2A R/B 3.9 22:22:41 10° NNE 22:24:34 26° NNE 22:24:34 26° NNE
Cosmos 407 Rocket 4.0 22:24:25 10° NNW 22:28:37 57° N 22:28:37 57° N
BREEZE-M DEB (TANK) 4.0 22:10:31 10° SW 22:30:57 90° NW 22:35:33 10° NE
Cosmos 1605 Rocket 3.9 22:32:33 73° WNW 22:32:33 73° WNW 22:38:28 10° N
USA 234 4.0 22:29:22 10° ENE 22:34:08 38° E 22:34:08 38° E
Lacrosse 5 rocket 3.9 22:44:25 15° NE 22:44:25 15° NE 22:45:12 10° NE
Milstar 3 4.4 22:38:01 42° SW 22:42:14 55° SSE 23:02:57 10° E
Cosmos 1241 Rocket 4.4 22:37:57 10° NNW 22:44:08 80° WNW 22:44:08 80° WNW
Meteor 1-26 Rocket 4.5 22:39:12 10° N 22:44:14 63° NE 22:44:14 63° NE
Cosmos 2297 3.9 22:46:45 67° NW 22:46:45 67° NW 22:52:03 10° NNE
Timation 1 Rocket 4.3 22:44:56 10° NNW 22:50:42 77° NE 22:50:42 77° NE
Cosmos 2251 Rocket 4.0 22:46:49 10° NNW 22:51:00 55° NW 22:51:00 55° NW
Cosmos 1624 Rocket 4.4 22:57:43 59° NNE 22:57:43 59° NNE 23:01:58 10° NNE
Cosmos 1153 Rocket 4.4 22:57:06 80° WNW 22:57:06 80° WNW 23:03:15 10° N
Cosmos 1447 Rocket 4.5 22:55:38 10° N 23:01:37 72° WNW 23:01:37 72° WNW
Cosmos 1954 Rocket 4.5 22:58:27 10° N 23:02:58 55° NE 23:02:58 55° NE
Cosmos 2173 Rocket 4.0 23:05:22 70° E 23:05:22 70° E 23:11:20 10° NNE
Meteor 2-21 4.4 23:00:21 10° N 23:06:32 81° E 23:06:32 81° E
CZ-2D R/B 4.4 23:04:55 10° ENE 23:06:45 12° E 23:07:07 12° E
Cosmos 2056 Rocket 3.9 23:11:01 57° NNW 23:11:01 57° NNW 23:15:34 10° NNE
CENTAUR R/B 4.4 23:04:03 10° NNW 23:11:47 39° NE 23:20:16 10° ESE
Cosmos 2082 Rocket 4.2 23:11:39 10° WNW 23:13:28 15° WNW 23:13:28 15° WNW
Lacrosse 4 Rocket 3.0 23:20:40 32° N 23:20:40 32° N 23:23:01 10° NNE
Cosmos 2369 Rocket 2.8 23:19:37 47° WNW 23:19:37 47° WNW 23:25:00 10° N
BREEZE M DEB (TANK) 4.3 23:17:02 10° WNW 23:32:14 79° NNE 23:33:53 47° ESE
Iridium 4 Rocket 4.2 23:26:43 10° NNW 23:31:55 50° WNW 23:31:55 50° WNW
Cosmos 676 Rocket 4.2 23:32:28 10° NNW 23:36:48 62° NNW 23:36:48 62° NNW
Cosmos 1331 Rocket 4.4 23:39:12 56° E 23:39:12 56° E 23:43:48 10° NNE
CZ-4C R/B 3.2 23:37:20 10° NW 23:44:50 55° WSW 23:45:34 54° SW
COSMOS 2455 3.1 23:39:16 10° NNW 23:45:18 65° ENE 23:46:54 47° ESE
Cosmos 1340 Rocket 4.3 23:42:28 10° N 23:44:46 34° N 23:44:46 34° N
Meteor 2-21 Rocket 4.4 23:41:28 10° NNW 23:47:33 67° W 23:47:39 67° W
Resurs 1-4 Rocket 3.2 23:42:49 10° NNE 23:47:36 32° E 23:48:08 32° ESE
Meteor 1-20 Rocket 4.4 23:48:13 58° ESE 23:48:36 59° E 23:54:08 10° NNE
Cosmos 2221 4.1 23:44:37 10° NNW 23:46:52 27° NW 23:46:52 27° NW
ADEOS II 3.8 23:49:25 10° NE 23:53:29 23° E 23:54:39 21° ESE
